Temp
34 32 30 32 33 35 34 33 34 34 36 34 34 33 34 32 31 30 25 28 31 31 31 32 32 31 30 29 28 27 26 25 24 24 23 22 22 22 22 21 22 22 21 22
32 31 33 36 36 36 35 34 33 34 36 35 34 34 35 32 31 30 25 28 30 29 31 31 32 30 30 28 27 26 26 24 24 24 23 23 23 23 22 23 22 22 22 22
31 33 37 37 36 36 36 33 34 34 36 36 33 34 33 32 32 32 30 30 27 27 31 30 30 30 29 28 27 26 26 25 24 23 23 23 22 22 22 23 22 22 22 22
33 36 37 37 36 36 34 36 37 37 33 31 35 31 31 31 32 32 31 28 28 27 31 30 30 30 29 28 27 27 25 25 24 23 23 23 23 23 23 23 23 23 23 23
33 35 35 36 37 37 35 37 36 37 34 36 34 31 32 29 30 32 32 33 31 33 31 30 30 30 30 29 27 26 25 24 23 23 23 23 23 24 24 23 23 23 23 22
34 37 37 36 38 38 37 36 35 35 32 29 32 31 30 29 30 32 30 32 34 33 32 31 30 31 31 28 26 25 24 24 23 23 23 23 24 23 23 23 23 23 23 22
33 34 36 38 36 37 36 34 28 29 28 28 30 31 30 33 33 34 33 34 34 33 32 30 29 29 29 27 25 24 24 24 23 23 23 23 23 24 24 23 23 23 22 21
30 30 35 37 35 33 32 31 27 30 29 29 33 32 33 36 36 36 36 34 34 30 23 22 25 29 28 27 25 25 24 24 23 23 23 23 23 23 22 22 21 22 21 21
31 32 36 37 37 36 33 32 32 31 32 29 29 31 33 30 27 33 36 35 33 27 25 24 29 29 28 28 25 25 24 24 23 23 23 23 21 21 20 20 20 21 21 21
31 30 34 37 37 36 34 34 32 28 30 30 30 30 29 28 27 31 28 32 31 31 31 31 30 29 28 29 27 26 25 24 23 23 23 22 22 20 20 20 20 21 20 21
32 30 33 34 34 33 33 32 33 29 29 28 27 27 27 26 25 26 25 27 32 31 31 30 30 29 29 27 25 24 24 24 23 23 22 22 22 22 19 20 20 20 20 21
33 30 29 32 34 36 34 34 31 27 29 27 26 27 29 25 24 28 27 23 33 32 31 30 29 29 28 24 25 24 23 22 22 21 22 21 21 21 21 21 21 20 21 20
33 28 29 29 30 33 34 34 34 30 28 29 27 27 26 23 20 20 20 25 31 30 30 28 28 27 25 24 24 22 22 21 21 21 22 21 21 21 21 21 20 20 20 20
30 29 29 27 29 33 33 34 34 31 28 29 29 27 24 24 21 19 19 27 27 29 29 26 25 25 24 22 22 22 21 21 20 21 21 21 21 21 21 21 20 20 20 20
31 29 31 30 32 33 33 34 34 32 29 30 28 27 25 24 24 23 26 27 28 30 29 25 25 24 23 22 22 22 21 20 20 21 21 21 21 21 21 21 21 21 20 20
29 28 32 30 32 33 33 34 34 34 32 31 28 27 25 23 24 27 28 27 28 30 29 27 25 24 23 22 22 22 22 21 22 21 22 22 22 22 22 21 21 21 21 20
27 27 28 28 30 31 29 32 33 33 31 32 29 29 22 22 25 25 26 26 29 29 28 28 25 25 23 23 23 22 22 22 22 22 22 22 22 22 21 21 21 21 21 21
27 27 27 26 28 27 30 32 33 33 33 30 30 26 25 23 24 25 25 26 28 27 25 24 25 26 25 25 24 23 23 22 22 22 22 22 22 22 21 21 21 20 20 20
26 27 26 26 26 28 31 32 32 32 30 31 27 27 27 26 26 27 26 25 24 23 22 24 25 26 27 26 25 24 23 23 23 22 22 22 22 21 21 21 20 20 19 19
28 25 25 25 26 26 28 28 31 30 27 27 27 27 25 25 24 25 26 24 22 22 22 23 25 26 26 26 26 25 24 24 24 23 23 22 22 21 20 21 20 19 19 19
26 25 25 25 25 28 25 26 29 29 25 24 22 25 24 25 27 24 23 21 21 21 22 23 23 24 25 26 26 25 25 24 25 24 23 23 22 22 21 20 20 19 19 19
25 24 25 25 26 26 23 26 27 20 20 25 21 20 19 23 24 23 22 20 20 20 22 21 21 20 21 23 25 25 24 24 24 24 23 23 22 21 21 20 20 19 19 18
21 21 21 21 21 23 24 21 19 18 19 19 20 20 20 19 21 24 23 21 20 21 21 21 20 19 19 20 22 22 21 23 23 23 22 21 21 21 20 20 19 18 18 18
22 21 21 20 21 21 16 20 19 19 21 20 20 18 19 19 21 24 22 21 21 21 20 20 19 18 18 19 19 18 19 19 20 20 20 20 20 19 19 19 19 18 18 17
22 22 20 21 18 19 20 18 16 17 19 21 22 21 20 19 23 22 21 20 21 21 21 21 19 19 18 18 18 18 18 19 19 19 19 18 19 18 18 17 17 17 17 17
23 20 19 19 15 16 16 15 16 14 15 22 25 26 26 24 21 21 20 22 22 22 22 21 20 19 19 19 18 18 18 17 18 18 18 18 18 17 17 16 15 15 16 16
Height
751 777 792 776 764 761 769 777 786 776 743 764 762 760 750 750 754 760 784 777 772 775 769 770 773 777 782 784 788 791 795 799 802 804 805 805 805 807 809 811 811 811 813 815
768 786 759 748 748 754 766 780 788 770 752 763 759 758 738 751 765 776 778 766 755 764 765 767 770 775 778 780 783 789 794 800 801 802 804 804 804 805 807 808 809 809 811 813
778 760 738 745 752 759 761 780 776 774 758 753 763 765 761 759 739 745 754 745 749 755 760 761 765 769 773 776 780 787 791 794 798 801 802 803 804 805 807 809 808 808 808 810
759 736 740 745 752 749 773 744 746 754 779 801 749 812 775 763 756 750 751 753 745 749 751 758 765 769 771 773 778 783 787 793 797 799 802 803 804 805 806 808 810 810 810 809
764 748 748 751 746 736 758 736 746 746 765 760 766 797 781 769 767 749 741 738 743 738 747 757 761 765 769 773 774 780 786 790 796 799 801 803 805 806 806 808 810 811 810 810
746 722 732 737 728 730 731 745 750 752 772 812 782 790 795 780 762 746 743 734 728 739 748 754 757 761 765 772 776 780 786 791 796 798 802 802 804 805 807 808 809 810 811 812
755 744 726 721 744 731 740 764 817 819 823 828 780 785 781 746 739 735 736 727 730 739 750 759 759 761 763 771 778 780 787 792 797 799 801 802 803 803 805 808 809 810 811 814
788 791 742 725 741 759 760 771 817 828 829 813 768 791 770 732 729 723 722 724 731 751 764 778 771 762 766 773 778 781 788 793 798 800 800 802 804 804 804 804 809 813 813 812
777 773 722 720 720 731 757 772 752 786 777 805 794 774 753 747 760 739 728 727 735 747 752 756 766 764 768 773 778 780 786 791 798 801 801 802 804 803 805 811 810 815 815 814
750 780 735 718 714 721 739 735 779 790 814 821 796 790 788 773 766 745 755 738 736 739 747 752 756 761 767 769 772 774 784 791 797 798 800 802 804 805 805 811 812 816 817 815
736 759 749 732 738 748 748 760 755 769 785 816 825 806 761 765 761 755 767 760 735 739 745 748 751 756 761 766 771 780 789 792 794 797 800 802 803 806 809 811 816 817 818 817
724 750 774 755 724 715 725 741 753 797 798 791 801 795 746 772 770 763 755 777 734 733 739 741 747 748 759 771 775 779 785 788 795 799 801 801 804 807 811 814 816 818 818 818
725 757 782 774 751 726 736 733 735 752 766 783 802 793 770 778 786 786 790 781 741 737 743 746 751 749 762 770 777 782 785 790 793 799 803 804 805 809 812 814 816 817 819 819
721 748 768 793 770 740 754 738 732 752 785 778 773 779 784 779 784 789 786 751 745 747 749 755 758 755 766 774 779 783 789 791 793 798 803 805 806 809 812 814 816 817 819 820
728 758 748 750 739 736 740 739 737 746 756 769 770 769 776 767 761 778 748 743 748 749 755 753 758 761 772 780 783 785 787 791 793 799 802 805 808 810 812 814 815 816 820 820
733 761 743 759 741 739 744 732 733 733 739 751 761 763 750 756 745 745 740 751 756 755 743 749 760 765 768 777 780 786 790 791 794 799 803 803 805 807 809 811 814 817 819 819
751 758 764 778 751 751 769 743 733 732 732 732 764 747 752 756 745 746 749 752 746 742 742 751 758 763 768 775 780 784 790 791 794 797 801 802 804 807 811 814 813 816 817 817
756 760 760 778 763 796 749 721 718 725 718 715 723 734 738 745 740 739 740 744 741 743 749 754 756 761 765 768 776 782 787 790 792 796 799 801 804 806 809 810 811 812 813 817
745 757 773 785 784 761 744 728 730 730 728 709 721 730 731 738 737 744 737 737 747 750 752 756 758 762 765 768 771 777 784 788 790 793 797 800 802 805 807 808 809 811 813 815
740 747 768 778 790 791 750 730 712 709 754 727 717 725 735 735 759 752 742 740 742 747 752 753 758 761 765 771 775 777 781 786 789 791 794 798 801 803 804 805 808 810 811 813
759 761 771 774 777 758 746 734 714 751 772 741 745 743 733 733 722 730 737 743 753 756 755 753 755 760 765 770 776 777 778 781 786 789 791 795 798 799 802 804 806 808 809 811
762 772 768 764 768 778 748 733 747 766 754 735 739 755 763 749 743 735 739 747 756 761 759 756 758 762 766 770 773 775 778 782 786 787 789 791 794 797 799 801 803 805 807 809
780 775 780 774 777 757 750 759 754 762 751 746 748 758 767 774 762 747 755 754 758 760 764 760 762 765 769 772 772 773 777 780 781 783 787 790 793 794 797 799 800 802 803 806
767 763 771 773 767 766 773 761 761 750 747 741 745 759 772 770 748 747 749 753 758 760 762 762 764 768 773 775 776 777 777 780 784 786 787 789 790 793 793 796 797 798 799 801
769 766 778 773 777 766 761 766 775 770 768 743 737 748 745 755 750 744 754 761 756 758 762 764 766 772 776 778 778 780 780 782 784 785 787 790 790 792 793 794 794 795 796 795
764 777 784 782 789 785 781 774 767 774 780 762 733 729 734 736 742 749 757 764 755 755 757 765 771 774 773 778 782 784 783 783 783 785 787 789 791 791 792 792 792 793 793 793
Wind_Speed
7 4 7 11 12 6 8 10 11 7 17 6 15 14 15 16 14 11 14 8 5 8 14 26 28 28 26 25 24 19 15 13 14 8 5 2 1 3 3 1 1 1 2 6
7 7 13 13 16 12 7 8 9 13 23 4 15 17 10 16 10 8 16 16 18 12 13 17 26 29 31 29 26 21 15 17 14 8 8 3 1 2 2 2 2 2 3 3
9 14 14 16 12 12 6 15 9 18 8 18 7 8 8 2 15 21 27 22 10 16 17 17 19 27 30 30 27 23 19 16 11 9 10 5 6 5 3 1 3 3 2 1
9 14 13 10 10 10 5 7 10 11 15 9 6 4 4 7 4 14 17 9 13 17 18 15 17 21 27 29 26 24 21 17 12 13 7 5 8 5 3 3 2 2 1 2
10 10 9 7 7 4 5 10 8 6 11 2 5 4 2 4 5 6 4 8 19 21 20 18 17 23 25 29 27 22 20 15 15 12 10 9 5 4 5 3 2 1 0 3
9 12 5 9 8 7 8 8 7 5 2 4 6 2 4 6 9 5 9 13 21 21 20 17 23 26 23 26 27 20 16 15 14 14 7 7 6 4 6 2 1 4 4 4
10 10 8 5 6 5 5 2 3 3 4 5 6 7 7 3 5 7 9 11 16 19 18 9 9 15 21 24 25 19 15 15 10 7 7 5 2 5 3 4 7 10 16 8
7 8 8 8 8 9 9 8 6 6 3 4 8 3 3 2 5 6 6 9 13 23 25 17 26 17 23 24 23 17 18 12 6 6 5 5 3 2 7 11 8 8 10 10
3 9 8 13 8 7 10 4 10 2 3 2 4 6 3 17 14 8 3 7 11 27 26 22 20 20 25 23 23 21 17 13 8 8 7 4 4 5 13 8 10 6 8 9
10 6 10 13 9 8 8 5 2 3 3 5 1 0 4 4 4 11 18 6 9 12 21 18 15 22 27 26 24 24 18 14 11 10 9 5 6 2 3 8 7 3 7 8
10 7 16 6 5 7 2 5 3 3 4 5 3 6 7 10 8 15 9 18 9 10 12 12 15 24 25 24 28 24 21 19 16 12 9 8 9 8 9 8 9 7 7 8
8 7 6 8 9 8 8 6 7 5 9 2 5 6 9 8 12 6 13 24 8 9 8 9 11 22 22 26 28 25 23 21 18 14 8 6 13 15 11 11 8 7 8 7
3 3 0 10 9 7 7 8 5 3 3 4 5 3 14 19 19 15 21 28 6 9 8 10 11 15 22 23 25 25 21 19 18 13 15 17 15 11 10 11 10 8 8 8
6 2 4 7 8 2 8 7 4 2 3 5 6 8 7 21 23 23 29 2 8 7 8 11 8 13 20 24 25 20 20 17 18 17 17 12 10 13 10 9 9 9 9 9
3 1 4 9 9 9 8 8 5 9 7 4 7 7 10 13 21 19 7 9 4 7 6 13 10 10 21 22 20 15 16 17 21 19 15 12 13 13 12 11 10 9 8 8
6 3 1 6 9 11 14 14 5 9 3 5 7 1 5 5 1 8 8 6 2 8 10 14 12 13 17 23 23 23 22 20 22 16 16 15 14 18 14 12 11 10 8 7
5 3 2 5 7 9 7 8 9 5 4 9 5 10 8 6 7 9 7 6 5 9 8 8 14 16 19 26 28 28 23 23 20 17 16 15 19 17 14 12 12 8 6 6
4 5 2 4 5 6 7 10 13 9 8 16 7 22 18 8 3 5 3 5 6 10 10 9 6 18 24 24 28 29 25 24 21 19 19 17 17 16 14 12 12 10 10 6
4 3 2 2 5 6 9 10 7 2 13 7 11 15 16 9 9 4 5 8 11 10 7 10 9 10 14 27 31 29 27 25 22 21 21 22 20 19 17 15 13 14 14 12
7 4 5 2 3 7 8 10 15 15 5 13 14 15 21 18 7 6 5 10 12 13 10 10 5 9 18 22 26 29 28 23 20 22 23 23 21 20 21 18 16 16 14 14
4 4 6 5 5 6 5 15 10 2 1 7 7 3 20 16 8 11 13 12 11 10 8 10 19 14 15 20 22 20 19 21 19 14 21 20 21 17 17 17 18 17 15 14
2 4 3 3 6 8 13 9 4 4 11 4 12 10 12 15 7 11 13 12 9 8 9 18 19 17 13 8 13 17 12 14 14 14 17 20 20 18 15 17 18 20 17 14
4 3 3 2 2 3 3 1 4 4 1 7 17 18 4 8 6 8 10 13 9 14 14 16 17 14 14 11 8 16 12 11 12 11 12 13 13 15 15 16 17 17 19 19
2 2 3 5 6 6 16 16 11 8 3 7 21 23 18 16 13 7 10 8 6 16 16 19 16 12 9 9 11 11 6 5 4 4 4 7 9 11 11 12 14 17 21 21
1 5 4 4 7 12 8 7 18 25 19 3 8 27 26 26 6 11 7 6 11 17 19 18 17 13 9 8 8 5 4 3 4 3 4 4 4 5 7 8 9 13 13 18
1 3 2 2 3 4 6 15 17 23 35 20 14 8 9 10 12 9 7 11 15 16 19 16 13 14 10 10 7 5 4 4 4 2 3 4 5 8 7 6 9 11 13 15
Wind_Direction
255 190 243 243 254 229 155 104 230 265 260 313 269 265 183 184 190 203 47 108 149 217 169 168 171 172 171 170 172 179 185 181 197 208 249 254 8 108 129 257 164 222 231 245
280 232 235 234 252 246 172 137 225 241 256 251 276 278 196 159 181 161 160 181 189 191 179 173 171 168 173 172 174 175 189 184 197 200 215 181 160 179 179 135 332 285 188 167
221 246 225 230 239 264 244 159 187 244 235 286 268 297 86 28 137 170 176 197 178 184 186 172 170 167 172 173 173 173 189 199 196 187 183 185 162 144 168 174 308 293 302 341
230 261 265 257 220 236 254 258 218 240 154 209 165 248 66 153 238 170 195 224 186 187 177 168 166 167 169 173 169 175 187 192 189 192 200 187 174 159 213 172 134 209 263 33
259 256 273 283 262 304 259 288 294 311 314 262 308 89 238 128 251 238 264 227 210 182 160 165 167 168 173 170 168 173 177 188 186 194 191 190 189 215 166 150 145 170 207 70
252 265 271 250 257 234 259 269 310 331 352 359 295 209 222 184 210 256 227 254 162 153 157 163 162 165 167 154 163 164 168 168 188 181 178 200 201 100 140 131 310 307 229 152
294 280 264 276 322 293 274 16 333 349 323 215 300 15 254 226 222 186 177 133 137 147 148 101 151 159 140 135 152 155 153 162 180 166 188 207 215 195 158 80 37 85 131 117
216 288 248 233 208 215 240 170 163 210 204 264 343 271 193 63 111 79 120 152 134 111 98 105 259 140 132 136 152 144 148 151 183 179 178 184 260 130 94 112 57 76 93 80
259 265 283 224 200 192 269 180 222 203 285 100 232 333 159 30 14 350 176 120 129 137 153 182 199 135 135 147 144 144 147 147 171 182 180 161 83 52 77 97 66 85 82 79
246 281 281 306 185 214 185 214 299 335 259 286 49 298 218 52 358 38 2 82 97 126 150 153 145 141 145 151 156 148 142 142 146 161 155 134 32 343 10 156 96 107 96 93
215 161 273 15 183 174 258 265 267 143 142 181 182 245 196 194 120 90 260 291 109 113 130 142 144 148 149 142 140 137 142 143 139 146 146 135 88 74 131 138 145 103 105 99
229 172 251 242 278 248 193 215 186 131 281 130 165 270 148 72 45 133 222 281 117 128 144 138 137 127 128 125 138 145 144 138 135 138 136 132 136 119 120 125 112 121 111 96
310 356 324 330 337 337 189 239 210 192 140 245 171 275 92 90 74 37 306 287 65 71 89 96 118 122 119 132 131 134 139 136 134 132 126 124 129 128 130 123 108 111 107 101
80 90 159 206 226 36 314 267 238 114 125 229 257 120 90 118 136 161 222 43 14 84 94 102 92 104 116 123 127 131 131 139 136 140 143 145 144 150 145 138 133 123 119 107
98 30 1 311 311 322 280 230 282 331 259 186 214 154 163 167 149 210 159 120 61 122 130 122 120 112 115 117 131 137 140 147 144 149 158 161 159 158 143 144 132 123 134 117
338 273 308 292 311 315 310 307 224 228 349 18 124 141 220 206 75 162 113 67 316 172 128 121 135 139 138 137 150 156 155 151 150 159 165 162 168 165 156 152 152 151 142 134
343 26 16 273 300 315 314 275 283 225 192 143 260 224 165 242 161 152 179 196 184 85 101 135 156 154 161 156 157 153 159 158 163 168 170 169 170 164 158 157 152 144 153 155
296 336 342 254 307 268 254 284 284 301 268 192 190 160 172 158 114 7 304 328 114 91 81 60 107 152 167 164 158 158 159 167 171 179 181 182 179 172 173 179 179 177 173 194
253 232 292 174 251 281 314 289 348 355 288 196 154 140 137 129 124 108 86 119 103 94 83 77 58 164 157 158 162 166 166 178 181 188 192 191 190 189 189 197 200 193 199 203
262 204 161 271 277 270 257 330 330 310 355 7 126 149 132 127 136 216 125 104 92 89 99 101 77 161 158 159 158 158 171 180 195 193 192 194 198 204 200 207 211 202 201 204
242 261 201 221 235 253 349 316 305 313 160 54 23 26 148 164 175 141 116 93 93 113 123 98 78 111 153 165 166 162 173 186 199 189 193 196 201 208 209 214 213 207 200 200
65 305 232 257 226 241 353 329 343 52 3 0 162 187 335 344 122 116 118 121 130 155 124 107 86 70 70 120 172 163 176 191 204 209 199 200 202 211 214 215 217 213 207 202
55 129 258 243 202 326 346 267 328 298 182 40 99 129 121 306 254 133 146 137 143 147 119 105 99 84 64 58 86 120 116 157 166 144 160 184 202 217 222 220 216 217 210 207
120 212 10 24 29 327 31 5 354 306 95 50 111 126 178 214 235 139 111 119 136 137 124 115 104 96 86 74 72 88 101 102 99 105 134 175 184 207 216 219 225 222 214 213
192 350 24 277 355 341 353 7 358 349 304 240 168 168 165 224 161 115 107 111 109 116 115 114 114 115 108 102 93 82 91 107 111 158 173 147 185 202 210 210 218 221 219 219
47 123 89 266 177 219 299 329 342 323 324 256 228 130 128 143 116 112 136 149 116 109 111 113 123 130 122 121 118 122 108 110 111 125 235 241 231 214 237 256 271 269 265 248